STARLINK-36372

Last updated on Tue Mar 24 2026 00:02:05 GMT+0000 (Coordinated Universal Time)

1 67889U 26035L 26082.45928421 .00128284 00000+0 84801-3 0 9995 2 67889 97.2861 15.5731 0001990 73.8570 286.2914 15.75190953 6018
UTC large
Height (km)
Speed (km/s)
/
Latitude / Longitude
Inclination (degrees)
Orbital Period (minutes)
Azimuth
Elevation
Range (km)
Doppler Factor

Next 0 passes for location: London (51.5072 / 0.1276)

Sorry there are no passes over London.